Weather History for HKMO - August, 2014

Change the Weather History Date:

Sunday, August 3, 2014

  Actual Average Record
Temperature  
Mean Temperature 75 °F -  
Max Temperature 81 °F 84 °F 84 °F (2011)
Min Temperature 69 °F 67 °F 64 °F (1996)
Cooling Degree Days 10    
Growing Degree Days 25 (Base 50)    
Moisture  
Dew Point 70 °F    
Average Humidity 82    
Maximum Humidity 94    
Minimum Humidity 57    
Precipitation  
Precipitation 0.00 in 0.09 in - ()
Sea Level Pressure  
Sea Level Pressure 30.05 in    
Wind  
Wind Speed 5 mph ()    
Max Wind Speed 21 mph    
Max Gust Speed -    
Visibility 9.9 miles    
Events Rain    
Averages and records for this station are not official NWS values.
T = Trace of Precipitation, MM = Missing Value Source: Averaged Metar Reports

Daily Weather History Graph

Daily Weather History Graph

Search for Another Location

Airport or City:

Trip Planner

Search our weather history database for the weather conditions in past years. The results will help you decide how hot, cold, wet, or windy it might be!

Date:

Astronomy

Aug. 03, 2014 Rise Set
Actual Time 6:29 AM EAT 6:26 PM EAT
Civil Twilight 6:07 AM EAT 6:47 PM EAT
Nautical Twilight 5:42 AM EAT 7:13 PM EAT
Astronomical Twilight 5:17 AM EAT 7:38 PM EAT
Moon 11:36 AM EAT (8/3) No Moon Set
Length of Visible Light 12h 40m
Length of Day
11h 56m
Waxing Crescent, 43% of the Moon is Illuminated
Aug 3
Waxing Crescent
Aug 4
First Quarter
Aug 10
Full
Aug 17
Last Quarter
Aug 25
New

Hourly Weather History & Observations

Time (EAT) Temp. Heat Index Dew Point Humidity Pressure Visibility Wind Dir Wind Speed Gust Speed Precip Events Conditions
12:00 AM 74 °F - 71 °F 86% 30.04 in 19 mi South 5.8 mph - -   Scattered Clouds
12:00 AM 73.4 °F - 71.6 °F 94% 30.04 in 6.2 mi South 5.8 mph - N/A   Partly Cloudy
1:00 AM 73.4 °F - 71.6 °F 94% 30.04 in 6.2 mi South 20.7 mph - N/A   Partly Cloudy
2:00 AM 73.4 °F - 71.6 °F 94% 30.01 in 6.2 mi South 9.2 mph - N/A   Partly Cloudy
3:00 AM 73 °F - 71 °F 89% 30.00 in 19 mi Calm Calm - -   Scattered Clouds
3:00 AM 73.4 °F - 69.8 °F 88% 30.01 in 6.2 mi Calm Calm - N/A   Partly Cloudy
5:00 AM 73.4 °F - 69.8 °F 88% 30.04 in 6.2 mi Calm Calm - N/A   Partly Cloudy
6:00 AM 71 °F - 69 °F 91% 30.04 in 19 mi Calm Calm - -   Partly Cloudy
6:00 AM 71.6 °F - 69.8 °F 94% 30.04 in 6.2 mi Calm Calm - N/A   Scattered Clouds
7:00 AM 71.6 °F - 69.8 °F 94% 30.06 in 6.2 mi Calm Calm - N/A   Scattered Clouds
8:00 AM 73.4 °F - 71.6 °F 94% 30.09 in 6.2 mi WSW 9.2 mph - N/A   Mostly Cloudy
9:00 AM 77 °F - 72 °F 79% 30.11 in 19 mi South 6.9 mph - -   Mostly Cloudy
9:00 AM 77.0 °F - 71.6 °F 83% 30.09 in 6.2 mi South 6.9 mph - N/A   Mostly Cloudy
10:00 AM 78.8 °F - 69.8 °F 74% 30.12 in 6.2 mi South 9.2 mph - N/A   Mostly Cloudy
12:00 PM 81 °F - 68 °F 57% 30.08 in 19 mi South 6.9 mph - -   Mostly Cloudy
12:00 PM 80.6 °F 83.2 °F 68.0 °F 65% 30.06 in 6.2 mi South 6.9 mph - N/A   Mostly Cloudy
1:00 PM 80.6 °F 83.2 °F 68.0 °F 65% 30.06 in 6.2 mi South 17.3 mph - N/A   Mostly Cloudy
2:00 PM 78.8 °F - 69.8 °F 74% 30.04 in - South 13.8 mph - N/A Rain Light Rain Showers
3:00 PM 75 °F - 70 °F 79% 30.04 in 19 mi South 6.9 mph - -   Scattered Clouds
3:00 PM 75.2 °F - 69.8 °F 83% 30.04 in 6.2 mi South 6.9 mph - N/A   Mostly Cloudy
4:00 PM 80.6 °F 83.2 °F 68.0 °F 65% 30.01 in 6.2 mi SSW 6.9 mph - N/A   Mostly Cloudy
5:00 PM 78.8 °F - 71.6 °F 78% 30.01 in 6.2 mi South 9.2 mph - N/A   Mostly Cloudy
6:00 PM 78 °F - 70 °F 71% 30.02 in 19 mi South 6.9 mph - -   Scattered Clouds
6:00 PM 77.0 °F - 69.8 °F 78% 30.01 in 6.2 mi South 6.9 mph - N/A   Partly Cloudy
8:00 PM 75.2 °F - 69.8 °F 83% 30.04 in 6.2 mi Calm Calm - N/A   Partly Cloudy
9:00 PM 74 °F - 69 °F 81% 30.06 in 19 mi Calm Calm - -   Scattered Clouds
9:00 PM 73.4 °F - 69.8 °F 88% 30.06 in 6.2 mi Calm Calm - N/A   Partly Cloudy
10:00 PM 73.4 °F - 69.8 °F 88% 30.06 in 6.2 mi Calm Calm - N/A   Partly Cloudy
11:00 PM 71.6 °F - 68.0 °F 88% 30.06 in 6.2 mi Calm Calm - N/A   Partly Cloudy